Regional Weather Roundup
Issued by NWS

Home | Current Version | Previous Version | Text Only | Print | Product List | Glossary On
Versions: 1 2 3 4 5 6 7 8 9 10 11 12 13 14 15 16 17 18 19 20 21 22 23 24 25 26 27 28 29 30 31 32 33 34 35 36 37 38 39 40 41 42 43 44 45 46 47 48 49 50
000
ASUS42 KTBW 271017
RWRFL
FLORIDA REGIONAL WEATHER ROUNDUP
NATIONAL WEATHER SERVICE TAMPA BAY RUSKIN FL
600 AM EDT WED MAY 27 2015

NOTE: "FAIR" INDICATES FEW OR NO CLOUDS BELOW 12,000 FEET WITH NO
SIGNIFICANT WEATHER AND/OR OBSTRUCTIONS TO VISIBILITY.


FLZ001>010-012>015-112-114-115-271100-
PANHANDLE FLORIDA

CITY           SKY/WX    TMP DP  RH WIND       PRES   REMARKS
PENSACOLA      CLOUDY    71  71 100 E5        30.14R
PENSACOLA NAS  TSTM      78  75  90 SE13      30.14R
MILTON NAS     MOCLDY    68  66  93 E5        30.16  THUNDER
CRESTVIEW      CLOUDY    67  66  97 CALM      30.17R
DUKE FIELD     FAIR      69  66  90 CALM      30.15R
VALPARAISO     MOCLDY    70  67  91 N2        30.15R
MARY ESTHER    CLOUDY    73  68  85 N3        30.14R
TRI COUNTY     FAIR      68  67  96 CALM      30.15S
PANAMA CITY    FAIR      70  67  90 NE3       30.14R
TYNDALL AFB    CLOUDY    72  68  88 NE3       30.13R
APALACHICOLA   MOCLDY    80  72  76 SE6       30.13R

STATION/POSITION SKY/WX   TEMP    WIND        PRES    WAVE   SWELL
                          AIR SEA DIR/SP/G            HT/PER HT/PER
                          (F)     (DEG/KT/KT) (MB)    (FT/S) (FT/S)
30.1N   87.6W              79 80  130/  8/  8 1019.4R   3/ 7   3/ 7
29.2N   88.2W              78 78   80/  2/  2 1020.1R   3/ 8   3/ 8
28.8N   86.0W              80 81  120/ 17/ 21 1018.5    4/ 7
PANAMA CITY BEAC           72 80   80/  5/  7 1019.7F
CAPE SAN BLAS    NOT AVBL
TOWER C                    77     130/ 14/ 15 1019.7R
28.5N   84.5W              80 80  130/ 16/ 17 1019.2R   5/ 5

$$
FLZ011-016>038-118-127-128-134-139-239-271100-
NORTH FLORIDA

CITY           SKY/WX    TMP DP  RH WIND       PRES   REMARKS
MARIANNA       MOCLDY    68  68 100 CALM      30.15R
TALLAHASSEE    MOCLDY    71  68  90 NE5       30.14S
PERRY          MOCLDY    70  69  98 CALM      30.15S
CROSS CITY       N/A     70  68  93 CALM      30.14R
LAKE CITY      FAIR      68  68 100 CALM      30.16R FOG
GAINESVILLE    CLOUDY    72  70  93 CALM      30.15R
MAYPORT NAS    CLOUDY    77  69  76 SE10      30.16R
JACKSONVILLE   MOCLDY    70  68  93 W5        30.15R
JAX NAS        MOCLDY    79  68  69 NE5       30.16R
JAX CRAIG      MOCLDY    75  68  78 E6        30.15R
JAX CECIL      MOCLDY    72  70  94 CALM      30.16R
FERNANDINA BEA FAIR      81  72  74 SE9       30.14S
ST AUGUSTINE   CLOUDY    76  68  76 SE10      30.16R

STATION/POSITION SKY/WX   TEMP    WIND        PRES    WAVE   SWELL
                          AIR SEA DIR/SP/G            HT/PER HT/PER
                          (F)     (DEG/KT/KT) (MB)    (FT/S) (FT/S)
SHELL POINT                77     120/  7/ 10   N/A
KEATON BEACH               70      60/  5/  7 1020.8R
CEDAR KEY                  77     130/ 14/ 16 1021.0R
FERNANDINA                 76 81  130/  3/  4 1020.5R
30.7N   81.3W                 79                N/A     3/ 5
MAYPORT                    77 79  120/  5/ 10 1020.7S
31.4N   80.9W              76 77  160/ 10/ 12 1022.0R   3/ 7   2/ 7
ST AUGUSTINE               77 78  130/ 11/ 13 1021.8R

$$
FLZ040-043>046-052-053-057-058-063-144-271100-
INTERIOR CENTRAL FLORIDA

CITY           SKY/WX    TMP DP  RH WIND       PRES   REMARKS
OCALA          CLOUDY    72  66  83 CALM      30.15R
THE VILLAGES     N/A     73  72  94 CALM      30.05R
LEESBURG       CLOUDY    74  68  81 SE6       30.14S
SANFORD        MOCLDY    73  68  84 CALM      30.13R
ORLANDO EXEC   MOCLDY    73  67  81 E3        30.13R
ORLANDO INTL   MOCLDY    73  68  84 E6        30.12F
WINTER HAVEN   CLOUDY    74  69  85 E6        30.14R
LAKELAND       MOCLDY    73  70  88 CALM      30.14R
BARTOW         FAIR      70  70 100 CALM      30.14R
OKEECHOBEE     MOCLDY    64  64 100 E5        30.12F

$$
FLZ041-047-054-059-064-141-147-271100-
EAST CENTRAL FLORIDA

CITY           SKY/WX    TMP DP  RH WIND       PRES   REMARKS
DAYTONA BEACH  MOCLDY    76  66  71 E7        30.12F
DELAND           N/A     72  66  83 E3        30.14R
JFK SPACE CTR  MOCLDY    75  65  72 E7        30.11F
CAPE CANAVERAL MOCLDY    76  66  72 SE9       30.11F
PATRICK AFB    MOCLDY    78  68  70 E22       30.10F
MELBOURNE      MOCLDY    77  67  71 E16       30.11F
VERO BEACH     PTCLDY    78  65  63 E14G21    30.12F
FT PIERCE      PTCLDY    76  67  73 E10       30.12S
STUART         PTCLDY    75  64  69 E12       30.13S

STATION/POSITION SKY/WX   TEMP    WIND        PRES    WAVE   SWELL
                          AIR SEA DIR/SP/G            HT/PER HT/PER
                          (F)     (DEG/KT/KT) (MB)    (FT/S) (FT/S)
28.5N   80.2W              78 80  100/ 12/ 17 1020.7F
28.9N   78.5W              78 81  100/ 12/ 16 1021.5F
TRIDENT PIER               77 82   90/  9/ 14 1020.7F
28.4N   80.5W                 82                N/A     3/ 4
27.5N   80.2W                 81                N/A     4/ 5

$$
FLZ050-056-061-142-242-148-248-149-249-151-251-155-255-
160-260-271100-
WEST CENTRAL FLORIDA

CITY           SKY/WX    TMP DP  RH WIND       PRES   REMARKS
CRYSTAL RIVER  FAIR      70  70 100 CALM      30.14R
INVERNESS      FAIR      70  70 100 CALM      30.14R FOG
BROOKSVILLE    PTCLDY    72  69  90 CALM      30.14S
CLEARWATER     PTCLDY    75  71  87 E12       30.12R
TAMPA INTL     PTCLDY    74  69  85 E5        30.13R
TAMPA EXEC       N/A    N/A N/A N/A MISG        N/A
PLANT CITY     PTCLDY    73  72  94 CALM      30.16R
MACDILL AFB    PTCLDY    74  73  97 SE6       30.12R
PETER O KNIGHT PTCLDY    75  72  88 E6        30.13R
ST PETERSBURG  PTCLDY    77  71  82 SE17      30.11R
SARASOTA       PTCLDY    73  70  90 E9        30.10S
VENICE         FAIR      73  72  94 E7        30.12S

STATION/POSITION SKY/WX   TEMP    WIND        PRES    WAVE   SWELL
                          AIR SEA DIR/SP/G            HT/PER HT/PER
                          (F)     (DEG/KT/KT) (MB)    (FT/S) (FT/S)
CEDAR KEY                  77     130/ 14/ 16 1021.0R
28.5N   84.5W              80 80  130/ 16/ 17 1019.2R   5/ 5
27.3N   84.2W                 81                N/A     4/ 5
CLEARWATER BEACH           76 84  120/ 10/ 14 1019.6F
MIDDLE TAMPA BAY           75     130/ 11/ 13 1019.8F
VENICE                     73 85   80/  6/  7 1019.4R

$$
FLZ066-069-070-075>078-162-262-165-265-271100-
SOUTHWEST FLORIDA AND KEYS

CITY           SKY/WX    TMP DP  RH WIND       PRES   REMARKS
PUNTA GORDA    MOCLDY    70  69  97 E7        30.13S
FT MYERS       PTCLDY    73  69  87 CALM      30.10R
SOUTHWEST INTL PTCLDY    72  68  87 E3        30.11R
NAPLES         PTCLDY    74  70  87 E8        30.10R
MARCO ISLAND     N/A     72  66  83 E6        30.10R
IMMOKALEE      SUNNY    N/A N/A N/A CALM      30.11S
MARATHON       CLEAR     80  68  66 E10       30.08R
KEY WEST NAS   PTCLDY    79  69  71 E15       30.08R
KEY WEST INTL  MOCLDY    80  69  69 E16G23    30.07S

STATION/POSITION SKY/WX   TEMP    WIND        PRES    WAVE   SWELL
                          AIR SEA DIR/SP/G            HT/PER HT/PER
                          (F)     (DEG/KT/KT) (MB)    (FT/S) (FT/S)
VENICE                     73 85   80/  6/  7 1019.4R
NAPLES                     74 84   90/  4/  7 1018.9F
26.0N   85.6W              81 82  100/ 12/ 16 1018.4R   3/ 4   2/ 7
DRY TORTUGAS               82     100/ 18/ 20 1017.7R
NW FL BAY                  80      80/ 13/ 15 1018.7
SAND KEY                   80      90/ 19/ 21 1018.0R
SOMBRERO KEY               80      90/ 18/ 20 1018.8R
LONG KEY                   80 83   90/ 15/ 16 1019.3R
MOLASSES REEF              80 83   90/ 19/ 21 1018.3S

$$
FLZ067-068-071>074-168-172>174-271100-
SOUTHEAST FLORIDA

CITY           SKY/WX    TMP DP  RH WIND       PRES   REMARKS
W PALM BEACH   PTCLDY    79  66  64 E14       30.12S
FT LAUDER-EXEC PTCLDY    78  68  71 E14       30.10S
FT LAUDERDALE  PTCLDY    78  69  73 E17       30.09S
POMPANO BEACH  PTCLDY    78  67  68 E14G21    30.10S
PEMBROKE PINES CLEAR     77  68  73 E12       30.11S
OPA LOCKA      CLEAR     77  67  71 E12       30.10S
MIAMI          PTCLDY    79  67  66 E16       30.09S
WEST KENDALL   CLEAR     76  67  73 E10       30.09S
HOMESTEAD      CLEAR     78  68  70 E13       30.09R

STATION/POSITION SKY/WX   TEMP    WIND        PRES    WAVE   SWELL
                          AIR SEA DIR/SP/G            HT/PER HT/PER
                          (F)     (DEG/KT/KT) (MB)    (FT/S) (FT/S)
PORT EVERGLADES            79      80/ 11/ 15 1019.2R
VIRGINIA KEY               80 83   80/ 16/ 18 1018.5F
LAKE WORTH                 79 82   90/ 15/ 17 1019.3F
SETTLEMENT POINT           78      90/ 15/ 17 1020.6R

$$



USA.gov is the U.S. government's official web portal to all federal, state and local government web resources and services.